Wetterdaten: Montag, 10.08.2015
Datum Zeit Auen-Temp. Temp gefhlt Luftfeuchte Luftdruck Regen Wind Richtung Richtung Taupunkt Windben
10.08.2015 00:00 16,9 C 16,8 C 85 % 1012,9 hPa 0,7 mm 2,6 km/h (1 Bft) S 180 14,4 C 6,7 km/h (2 Bft)
10.08.2015 00:05 16,9 C 16,8 C 86 % 1012,9 hPa 0,0 mm 2,8 km/h (1 Bft) W-SW 247 14,5 C 0,0 km/h (0 Bft)
10.08.2015 00:10 17,0 C 16,9 C 86 % 1012,9 hPa 0,0 mm 2,8 km/h (1 Bft) W-SW 247 14,6 C 5,7 km/h (1 Bft)
10.08.2015 00:15 17,0 C 16,9 C 86 % 1012,8 hPa 0,0 mm 1,8 km/h (1 Bft) NW 315 14,6 C 0,0 km/h (0 Bft)
10.08.2015 00:20 17,0 C 16,9 C 86 % 1012,8 hPa 0,0 mm 1,0 km/h (0 Bft) W 270 14,6 C 0,0 km/h (0 Bft)
10.08.2015 00:25 17,0 C 16,9 C 86 % 1012,8 hPa 0,0 mm 0,5 km/h (0 Bft) SO 135 14,6 C 0,0 km/h (0 Bft)
10.08.2015 00:30 16,9 C 16,8 C 88 % 1012,8 hPa 0,7 mm 0,5 km/h (0 Bft) SO 135 14,9 C 0,0 km/h (0 Bft)
10.08.2015 00:35 16,9 C 16,8 C 87 % 1012,6 hPa 0,0 mm 0,5 km/h (0 Bft) W 270 14,7 C 0,0 km/h (0 Bft)
10.08.2015 00:40 16,9 C 16,8 C 87 % 1012,6 hPa 0,0 mm 0,8 km/h (0 Bft) O-SO 112 14,7 C 0,0 km/h (0 Bft)
10.08.2015 00:45 16,8 C 16,7 C 88 % 1012,6 hPa 0,0 mm 0,8 km/h (0 Bft) NW 315 14,8 C 0,0 km/h (0 Bft)
10.08.2015 00:50 16,6 C 16,5 C 87 % 1012,6 hPa 0,0 mm 0,3 km/h (0 Bft) S 180 14,4 C 0,0 km/h (0 Bft)
10.08.2015 00:55 16,5 C 16,4 C 87 % 1012,5 hPa 0,0 mm 0,5 km/h (0 Bft) S-SO 157 14,3 C 0,0 km/h (0 Bft)
10.08.2015 01:00 16,4 C 16,4 C 87 % 1012,5 hPa 0,0 mm 1,6 km/h (1 Bft) W-SW 247 14,2 C 0,0 km/h (0 Bft)
10.08.2015 01:05 16,4 C 16,3 C 87 % 1012,5 hPa 0,0 mm 1,0 km/h (0 Bft) S 180 14,2 C 0,0 km/h (0 Bft)
10.08.2015 01:10 16,3 C 16,2 C 87 % 1012,5 hPa 0,0 mm 0,0 km/h (0 Bft) S 180 14,1 C 0,0 km/h (0 Bft)
10.08.2015 01:15 16,3 C 16,2 C 87 % 1012,2 hPa 0,0 mm 0,0 km/h (0 Bft) O-SO 112 14,1 C 0,0 km/h (0 Bft)
10.08.2015 01:20 16,1 C 16,0 C 87 % 1012,2 hPa 0,0 mm 0,0 km/h (0 Bft) W-SW 247 13,9 C 0,0 km/h (0 Bft)
10.08.2015 01:25 16,1 C 16,0 C 87 % 1012,2 hPa 0,0 mm 0,0 km/h (0 Bft) S-SO 157 13,9 C 0,0 km/h (0 Bft)
10.08.2015 01:30 16,0 C 15,9 C 87 % 1012,2 hPa 0,0 mm 0,3 km/h (0 Bft) O-SO 112 13,8 C 0,0 km/h (0 Bft)
10.08.2015 01:35 16,0 C 15,9 C 87 % 1012,3 hPa 0,0 mm 0,3 km/h (0 Bft) S-SO 157 13,8 C 0,0 km/h (0 Bft)
10.08.2015 01:40 16,2 C 16,0 C 88 % 1012,3 hPa 0,0 mm 1,3 km/h (1 Bft) SO 135 14,2 C 3,4 km/h (1 Bft)
10.08.2015 01:45 16,0 C 15,9 C 88 % 1012,3 hPa 0,0 mm 1,6 km/h (1 Bft) SO 135 14,0 C 0,0 km/h (0 Bft)
10.08.2015 01:50 15,9 C 15,8 C 88 % 1012,3 hPa 0,0 mm 0,8 km/h (0 Bft) SO 135 13,9 C 0,0 km/h (0 Bft)
10.08.2015 01:55 15,9 C 15,8 C 89 % 1012,0 hPa 0,0 mm 0,0 km/h (0 Bft) S-SO 157 14,1 C 0,0 km/h (0 Bft)
10.08.2015 02:00 15,7 C 15,6 C 89 % 1012,0 hPa 0,0 mm 0,0 km/h (0 Bft) SO 135 13,9 C 0,0 km/h (0 Bft)
10.08.2015 02:05 15,8 C 15,7 C 89 % 1012,0 hPa 0,0 mm 0,0 km/h (0 Bft) S-SO 157 14,0 C 0,0 km/h (0 Bft)
10.08.2015 02:10 15,7 C 15,6 C 89 % 1012,0 hPa 0,0 mm 0,5 km/h (0 Bft) S-SO 157 13,9 C 0,0 km/h (0 Bft)
10.08.2015 02:15 15,7 C 15,6 C 89 % 1011,8 hPa 0,0 mm 0,5 km/h (0 Bft) SO 135 13,9 C 0,0 km/h (0 Bft)
10.08.2015 02:20 15,6 C 15,5 C 89 % 1011,8 hPa 0,0 mm 0,0 km/h (0 Bft) S-SO 157 13,8 C 0,0 km/h (0 Bft)
10.08.2015 02:25 15,7 C 15,6 C 89 % 1011,8 hPa 0,0 mm 0,3 km/h (0 Bft) S 180 13,9 C 2,6 km/h (1 Bft)
10.08.2015 02:30 15,3 C 15,4 C 89 % 1011,8 hPa 0,0 mm 0,3 km/h (0 Bft) N-NO 22 13,5 C 0,0 km/h (0 Bft)
10.08.2015 02:35 15,3 C 15,3 C 89 % 1011,8 hPa 0,0 mm 0,3 km/h (0 Bft) S-SW 202 13,5 C 4,7 km/h (1 Bft)
10.08.2015 02:40 15,4 C 15,5 C 86 % 1011,8 hPa 0,0 mm 1,6 km/h (1 Bft) S-SO 157 13,1 C 0,0 km/h (0 Bft)
10.08.2015 02:45 15,3 C 15,3 C 89 % 1011,8 hPa 0,0 mm 2,3 km/h (1 Bft) O-NO 67 13,5 C 0,0 km/h (0 Bft)
10.08.2015 02:50 15,1 C 15,1 C 89 % 1011,8 hPa 0,0 mm 0,8 km/h (0 Bft) NO 45 13,3 C 0,0 km/h (0 Bft)
10.08.2015 02:55 15,1 C 15,2 C 86 % 1011,9 hPa 0,0 mm 0,3 km/h (0 Bft) S 180 12,8 C 0,0 km/h (0 Bft)
10.08.2015 03:00 15,4 C 15,4 C 86 % 1011,9 hPa 0,0 mm 0,3 km/h (0 Bft) S-SO 157 13,1 C 0,0 km/h (0 Bft)
10.08.2015 03:05 15,2 C 15,2 C 89 % 1011,9 hPa 0,0 mm 0,0 km/h (0 Bft) S 180 13,4 C 0,0 km/h (0 Bft)
10.08.2015 03:10 15,2 C 15,1 C 89 % 1011,9 hPa 0,0 mm 0,0 km/h (0 Bft) S 180 13,4 C 0,0 km/h (0 Bft)
10.08.2015 03:15 15,1 C 15,1 C 89 % 1011,8 hPa 0,0 mm 0,0 km/h (0 Bft) O-NO 67 13,3 C 0,0 km/h (0 Bft)
10.08.2015 03:20 15,3 C 15,2 C 89 % 1011,8 hPa 0,0 mm 0,0 km/h (0 Bft) SO 135 13,5 C 0,0 km/h (0 Bft)
10.08.2015 03:25 15,1 C 15,1 C 89 % 1011,8 hPa 0,0 mm 0,0 km/h (0 Bft) O-NO 67 13,3 C 0,0 km/h (0 Bft)
10.08.2015 03:30 14,8 C 14,9 C 89 % 1011,8 hPa 0,0 mm 0,0 km/h (0 Bft) O-NO 67 13,0 C 0,0 km/h (0 Bft)
10.08.2015 03:35 14,8 C 14,8 C 89 % 1011,7 hPa 0,0 mm 0,0 km/h (0 Bft) O-NO 67 13,0 C 0,0 km/h (0 Bft)
10.08.2015 03:40 15,2 C 15,1 C 89 % 1011,7 hPa 0,0 mm 0,0 km/h (0 Bft) O-SO 112 13,4 C 0,0 km/h (0 Bft)
10.08.2015 03:45 15,2 C 15,1 C 89 % 1011,7 hPa 0,0 mm 0,0 km/h (0 Bft) O-NO 67 13,4 C 0,0 km/h (0 Bft)
10.08.2015 03:50 15,0 C 15,0 C 89 % 1011,7 hPa 0,0 mm 0,0 km/h (0 Bft) O-NO 67 13,2 C 0,0 km/h (0 Bft)
10.08.2015 03:55 14,9 C 14,9 C 89 % 1011,7 hPa 0,0 mm 0,0 km/h (0 Bft) S 180 13,1 C 0,0 km/h (0 Bft)
10.08.2015 04:00 15,0 C 14,9 C 89 % 1011,7 hPa 0,0 mm 0,0 km/h (0 Bft) W-SW 247 13,2 C 0,0 km/h (0 Bft)
10.08.2015 04:05 14,8 C 14,8 C 89 % 1011,7 hPa 0,0 mm 0,0 km/h (0 Bft) S-SW 202 13,0 C 3,1 km/h (1 Bft)
10.08.2015 04:10 14,7 C 14,7 C 89 % 1011,7 hPa 0,0 mm 0,3 km/h (0 Bft) S-SW 202 12,9 C 0,0 km/h (0 Bft)
10.08.2015 04:15 14,8 C 14,8 C 89 % 1011,9 hPa 0,0 mm 0,3 km/h (0 Bft) S 180 13,0 C 0,0 km/h (0 Bft)
10.08.2015 04:20 14,5 C 14,5 C 89 % 1011,9 hPa 0,0 mm 0,0 km/h (0 Bft) S 180 12,7 C 0,0 km/h (0 Bft)
10.08.2015 04:25 14,4 C 14,4 C 89 % 1011,9 hPa 0,0 mm 0,0 km/h (0 Bft) S 180 12,6 C 0,0 km/h (0 Bft)
10.08.2015 04:30 14,5 C 14,4 C 89 % 1011,9 hPa 0,0 mm 0,0 km/h (0 Bft) S 180 12,7 C 0,0 km/h (0 Bft)
10.08.2015 04:35 14,5 C 14,4 C 89 % 1011,6 hPa 0,0 mm 1,0 km/h (0 Bft) S 180 12,7 C 4,7 km/h (1 Bft)
10.08.2015 04:40 14,7 C 14,6 C 89 % 1011,6 hPa 0,0 mm 1,0 km/h (0 Bft) S-SW 202 12,9 C 0,0 km/h (0 Bft)
10.08.2015 04:45 14,6 C 14,6 C 86 % 1011,6 hPa 0,0 mm 0,5 km/h (0 Bft) S-SO 157 12,3 C 0,0 km/h (0 Bft)
10.08.2015 04:50 14,6 C 14,5 C 89 % 1011,6 hPa 0,0 mm 0,0 km/h (0 Bft) S 180 12,8 C 0,0 km/h (0 Bft)
10.08.2015 04:55 14,8 C 14,7 C 90 % 1011,6 hPa 0,0 mm 0,5 km/h (0 Bft) S-SO 157 13,2 C 3,6 km/h (1 Bft)
10.08.2015 05:00 14,7 C 14,7 C 90 % 1011,6 hPa 0,0 mm 1,0 km/h (0 Bft) S-SO 157 13,1 C 0,0 km/h (0 Bft)
10.08.2015 05:01 14,7 C 14,7 C 90 % 1011,6 hPa 0,0 mm 1,3 km/h (1 Bft) SO 135 13,1 C 2,8 km/h (1 Bft)
10.08.2015 05:06 14,7 C 14,7 C 90 % 1011,6 hPa 0,0 mm 1,3 km/h (1 Bft) SO 135 13,1 C 2,8 km/h (1 Bft)
10.08.2015 05:10 14,7 C 14,7 C 90 % 1011,6 hPa 0,0 mm 1,3 km/h (1 Bft) N-NW 337 13,1 C 2,8 km/h (1 Bft)
10.08.2015 05:15 14,7 C 14,7 C 90 % 1011,6 hPa 0,0 mm 1,8 km/h (1 Bft) S 180 13,1 C 3,1 km/h (1 Bft)
10.08.2015 05:20 14,7 C 14,7 C 90 % 1011,6 hPa 0,0 mm 3,1 km/h (1 Bft) S-SO 157 13,1 C 10,1 km/h (2 Bft)
10.08.2015 05:25 14,8 C 14,8 C 90 % 1011,6 hPa 0,0 mm 2,3 km/h (1 Bft) S 180 13,2 C 0,0 km/h (0 Bft)
10.08.2015 05:30 14,8 C 14,8 C 90 % 1011,6 hPa 0,0 mm 1,3 km/h (1 Bft) S-SO 157 13,2 C 0,0 km/h (0 Bft)
10.08.2015 05:35 14,8 C 14,8 C 90 % 1011,4 hPa 0,0 mm 2,1 km/h (1 Bft) S 180 13,2 C 7,5 km/h (2 Bft)
10.08.2015 05:40 14,7 C 14,7 C 90 % 1011,4 hPa 0,0 mm 1,8 km/h (1 Bft) S 180 13,1 C 3,4 km/h (1 Bft)
10.08.2015 05:45 14,6 C 14,6 C 90 % 1011,4 hPa 0,0 mm 1,8 km/h (1 Bft) S 180 13,0 C 4,4 km/h (1 Bft)
10.08.2015 05:50 14,7 C 14,6 C 90 % 1011,4 hPa 0,0 mm 0,5 km/h (0 Bft) S-SO 157 13,1 C 0,0 km/h (0 Bft)
10.08.2015 05:55 14,7 C 14,6 C 90 % 1011,4 hPa 0,0 mm 0,5 km/h (0 Bft) S-SO 157 13,1 C 0,0 km/h (0 Bft)
10.08.2015 06:00 14,8 C 14,7 C 90 % 1011,4 hPa 0,0 mm 0,3 km/h (0 Bft) SO 135 13,2 C 0,0 km/h (0 Bft)
10.08.2015 06:05 14,7 C 14,6 C 90 % 1011,4 hPa 0,0 mm 0,0 km/h (0 Bft) S-SO 157 13,1 C 0,0 km/h (0 Bft)
10.08.2015 06:10 14,9 C 14,8 C 90 % 1011,4 hPa 0,0 mm 0,3 km/h (0 Bft) S-SO 157 13,3 C 0,0 km/h (0 Bft)
10.08.2015 06:15 14,9 C 14,8 C 91 % 1011,6 hPa 0,0 mm 0,3 km/h (0 Bft) S-SO 157 13,4 C 0,0 km/h (0 Bft)
10.08.2015 06:20 14,9 C 14,8 C 91 % 1011,6 hPa 0,0 mm 0,0 km/h (0 Bft) S 180 13,4 C 0,0 km/h (0 Bft)
10.08.2015 06:25 14,7 C 14,7 C 90 % 1011,6 hPa 0,0 mm 0,0 km/h (0 Bft) S 180 13,1 C 0,0 km/h (0 Bft)
10.08.2015 06:30 14,7 C 14,7 C 90 % 1011,6 hPa 0,0 mm 0,3 km/h (0 Bft) W-SW 247 13,1 C 5,2 km/h (1 Bft)
10.08.2015 06:35 14,7 C 14,7 C 90 % 1011,5 hPa 0,0 mm 0,3 km/h (0 Bft) W-NW 292 13,1 C 0,0 km/h (0 Bft)
10.08.2015 06:40 14,5 C 15,2 C 90 % 1011,5 hPa 0,0 mm 0,3 km/h (0 Bft) W-NW 292 12,9 C 0,0 km/h (0 Bft)
10.08.2015 06:45 14,4 C 15,7 C 90 % 1011,5 hPa 0,0 mm 0,0 km/h (0 Bft) W-NW 292 12,8 C 0,0 km/h (0 Bft)
10.08.2015 06:50 14,6 C 16,1 C 90 % 1011,5 hPa 0,0 mm 0,0 km/h (0 Bft) S 180 13,0 C 0,0 km/h (0 Bft)
10.08.2015 06:55 14,7 C 16,5 C 90 % 1011,4 hPa 0,0 mm 0,0 km/h (0 Bft) W-SW 247 13,1 C 0,0 km/h (0 Bft)
10.08.2015 07:00 15,0 C 16,8 C 90 % 1011,4 hPa 0,0 mm 0,3 km/h (0 Bft) N 360 13,4 C 0,0 km/h (0 Bft)
10.08.2015 07:05 15,1 C 17,1 C 87 % 1011,4 hPa 0,0 mm 0,5 km/h (0 Bft) W-NW 292 13,0 C 0,0 km/h (0 Bft)
10.08.2015 07:10 15,2 C 18,1 C 87 % 1011,4 hPa 0,0 mm 0,3 km/h (0 Bft) W-NW 292 13,0 C 0,0 km/h (0 Bft)
10.08.2015 07:15 15,3 C 18,9 C 87 % 1011,4 hPa 0,0 mm 0,0 km/h (0 Bft) N 360 13,1 C 0,0 km/h (0 Bft)
10.08.2015 07:20 15,6 C 19,9 C 87 % 1011,4 hPa 0,0 mm 0,0 km/h (0 Bft) S-SO 157 13,4 C 0,0 km/h (0 Bft)
10.08.2015 07:25 15,8 C 20,4 C 87 % 1011,4 hPa 0,0 mm 0,8 km/h (0 Bft) S-SW 202 13,6 C 3,4 km/h (1 Bft)
10.08.2015 07:30 16,2 C 19,6 C 87 % 1011,4 hPa 0,0 mm 1,3 km/h (1 Bft) W 270 14,0 C 0,0 km/h (0 Bft)
10.08.2015 07:35 16,3 C 20,0 C 87 % 1011,2 hPa 0,0 mm 1,0 km/h (0 Bft) W-SW 247 14,1 C 4,7 km/h (1 Bft)
10.08.2015 07:40 16,5 C 21,4 C 86 % 1011,2 hPa 0,0 mm 3,1 km/h (1 Bft) S-SW 202 14,1 C 12,4 km/h (3 Bft)
10.08.2015 07:45 16,6 C 21,8 C 86 % 1011,2 hPa 0,0 mm 4,1 km/h (1 Bft) W-NW 292 14,2 C 0,0 km/h (0 Bft)
10.08.2015 07:50 17,2 C 23,0 C 86 % 1011,2 hPa 0,0 mm 2,3 km/h (1 Bft) S 180 14,8 C 3,6 km/h (1 Bft)
10.08.2015 07:55 17,3 C 23,3 C 86 % 1011,2 hPa 0,0 mm 2,1 km/h (1 Bft) S-SO 157 14,9 C 0,0 km/h (0 Bft)
10.08.2015 08:00 17,6 C 23,8 C 86 % 1011,2 hPa 0,0 mm 2,1 km/h (1 Bft) SW 225 15,2 C 4,7 km/h (1 Bft)
10.08.2015 08:05 18,0 C 24,5 C 86 % 1011,2 hPa 0,0 mm 1,0 km/h (0 Bft) SO 135 15,6 C 0,0 km/h (0 Bft)
10.08.2015 08:10 18,4 C 25,5 C 85 % 1011,2 hPa 0,0 mm 0,5 km/h (0 Bft) S 180 15,8 C 0,0 km/h (0 Bft)
10.08.2015 08:15 18,8 C 25,7 C 85 % 1011,6 hPa 0,0 mm 0,5 km/h (0 Bft) NW 315 16,2 C 0,0 km/h (0 Bft)
10.08.2015 08:20 19,1 C 26,0 C 84 % 1011,6 hPa 0,0 mm 1,0 km/h (0 Bft) W-NW 292 16,3 C 0,0 km/h (0 Bft)
10.08.2015 08:25 19,1 C 25,9 C 84 % 1011,6 hPa 0,0 mm 2,1 km/h (1 Bft) SW 225 16,3 C 5,4 km/h (1 Bft)
10.08.2015 08:30 19,1 C 25,9 C 83 % 1011,6 hPa 0,0 mm 2,8 km/h (1 Bft) SW 225 16,1 C 4,4 km/h (1 Bft)
10.08.2015 08:35 19,4 C 26,7 C 83 % 1011,4 hPa 0,0 mm 1,6 km/h (1 Bft) S-SO 157 16,4 C 0,0 km/h (0 Bft)
10.08.2015 08:40 19,7 C 27,5 C 82 % 1011,4 hPa 0,0 mm 0,8 km/h (0 Bft) N-NO 22 16,5 C 0,0 km/h (0 Bft)
10.08.2015 08:45 20,0 C 28,0 C 82 % 1011,4 hPa 0,0 mm 0,8 km/h (0 Bft) NW 315 16,8 C 4,4 km/h (1 Bft)
10.08.2015 08:50 20,3 C 28,0 C 81 % 1011,4 hPa 0,0 mm 2,3 km/h (1 Bft) W 270 16,9 C 5,2 km/h (1 Bft)
10.08.2015 08:55 20,5 C 27,8 C 80 % 1011,4 hPa 0,0 mm 2,8 km/h (1 Bft) W-NW 292 16,9 C 3,1 km/h (1 Bft)
10.08.2015 09:00 20,6 C 28,5 C 79 % 1011,4 hPa 0,7 mm 1,3 km/h (1 Bft) S 180 16,8 C 0,0 km/h (0 Bft)
10.08.2015 09:05 20,6 C 28,8 C 79 % 1011,4 hPa 0,0 mm 1,0 km/h (0 Bft) W 270 16,8 C 0,0 km/h (0 Bft)
10.08.2015 09:10 21,2 C 29,2 C 79 % 1011,4 hPa 0,0 mm 0,5 km/h (0 Bft) W 270 17,4 C 3,9 km/h (1 Bft)
10.08.2015 09:15 21,6 C 29,1 C 78 % 1011,6 hPa 0,0 mm 1,0 km/h (0 Bft) W 270 17,6 C 5,7 km/h (1 Bft)
10.08.2015 09:20 21,6 C 29,0 C 77 % 1011,6 hPa 0,0 mm 1,8 km/h (1 Bft) NW 315 17,4 C 0,0 km/h (0 Bft)
10.08.2015 09:25 21,5 C 28,9 C 77 % 1011,6 hPa 0,0 mm 2,6 km/h (1 Bft) W-NW 292 17,3 C 5,2 km/h (1 Bft)
10.08.2015 09:30 21,7 C 28,8 C 76 % 1011,6 hPa 0,0 mm 3,6 km/h (1 Bft) NW 315 17,3 C 8,8 km/h (2 Bft)
10.08.2015 09:35 21,6 C 28,5 C 76 % 1011,8 hPa 0,0 mm 4,4 km/h (1 Bft) SW 225 17,2 C 6,7 km/h (2 Bft)
10.08.2015 09:40 21,8 C 28,6 C 76 % 1011,8 hPa 0,0 mm 3,9 km/h (1 Bft) S-SW 202 17,4 C 6,7 km/h (2 Bft)
10.08.2015 09:45 22,2 C 28,8 C 75 % 1011,8 hPa 0,0 mm 2,6 km/h (1 Bft) NW 315 17,5 C 4,9 km/h (1 Bft)
10.08.2015 09:50 22,5 C 29,3 C 75 % 1011,8 hPa 0,0 mm 1,8 km/h (1 Bft) S 180 17,8 C 3,9 km/h (1 Bft)
10.08.2015 09:55 22,5 C 29,6 C 74 % 1012,0 hPa 0,0 mm 2,3 km/h (1 Bft) S 180 17,6 C 6,0 km/h (2 Bft)
10.08.2015 10:00 22,6 C 29,7 C 73 % 1012,0 hPa 0,0 mm 2,6 km/h (1 Bft) S 180 17,5 C 3,4 km/h (1 Bft)
10.08.2015 10:05 22,6 C 29,7 C 73 % 1012,0 hPa 0,0 mm 3,6 km/h (1 Bft) W-SW 247 17,5 C 12,7 km/h (3 Bft)
10.08.2015 10:10 22,5 C 29,4 C 73 % 1012,0 hPa 0,0 mm 4,1 km/h (1 Bft) SW 225 17,4 C 4,4 km/h (1 Bft)
10.08.2015 10:15 22,7 C 29,6 C 72 % 1012,2 hPa 0,0 mm 4,4 km/h (1 Bft) W-NW 292 17,4 C 6,7 km/h (2 Bft)
10.08.2015 10:20 22,7 C 29,0 C 72 % 1012,2 hPa 0,0 mm 6,7 km/h (2 Bft) W 270 17,4 C 16,6 km/h (3 Bft)
10.08.2015 10:25 22,7 C 28,2 C 72 % 1012,2 hPa 0,0 mm 9,1 km/h (2 Bft) W-NW 292 17,4 C 9,6 km/h (2 Bft)
10.08.2015 10:30 22,6 C 27,6 C 72 % 1012,2 hPa 0,0 mm 9,8 km/h (2 Bft) W 270 17,3 C 18,1 km/h (3 Bft)
10.08.2015 10:35 22,7 C 27,4 C 72 % 1012,4 hPa 0,0 mm 9,3 km/h (2 Bft) NW 315 17,4 C 8,0 km/h (2 Bft)
10.08.2015 10:40 22,9 C 27,6 C 71 % 1012,4 hPa 0,0 mm 8,5 km/h (2 Bft) NW 315 17,4 C 13,5 km/h (3 Bft)
10.08.2015 10:45 23,0 C 27,8 C 70 % 1012,4 hPa 0,0 mm 8,3 km/h (2 Bft) W 270 17,2 C 10,9 km/h (2 Bft)
10.08.2015 10:50 23,1 C 28,1 C 70 % 1012,4 hPa 0,0 mm 6,5 km/h (2 Bft) W 270 17,3 C 4,4 km/h (1 Bft)
10.08.2015 10:55 23,3 C 28,7 C 69 % 1012,4 hPa 0,0 mm 5,2 km/h (1 Bft) S-SO 157 17,3 C 4,7 km/h (1 Bft)
10.08.2015 11:00 23,5 C 28,9 C 69 % 1012,4 hPa 0,0 mm 6,5 km/h (2 Bft) W-NW 292 17,5 C 11,1 km/h (2 Bft)
10.08.2015 11:05 23,4 C 28,6 C 69 % 1012,4 hPa 0,0 mm 7,8 km/h (2 Bft) NW 315 17,4 C 5,4 km/h (1 Bft)
10.08.2015 11:06 23,6 C 28,6 C 69 % 1012,4 hPa 0,0 mm 7,8 km/h (2 Bft) W 270 17,6 C 5,4 km/h (1 Bft)
10.08.2015 11:07 23,6 C 28,6 C 69 % 1012,4 hPa 0,0 mm 7,8 km/h (2 Bft) W 270 17,6 C 5,4 km/h (1 Bft)
10.08.2015 11:10 23,6 C 28,6 C 69 % 1012,4 hPa 0,0 mm 7,8 km/h (2 Bft) W 270 17,6 C 5,4 km/h (1 Bft)
10.08.2015 11:15 23,8 C 28,9 C 69 % 1012,4 hPa 0,0 mm 6,0 km/h (2 Bft) W 270 17,8 C 10,1 km/h (2 Bft)
10.08.2015 11:20 23,9 C 29,6 C 68 % 1012,4 hPa 0,0 mm 4,1 km/h (1 Bft) W-NW 292 17,6 C 8,8 km/h (2 Bft)
10.08.2015 11:25 23,9 C 29,8 C 68 % 1012,4 hPa 0,0 mm 4,9 km/h (1 Bft) W-NW 292 17,6 C 9,1 km/h (2 Bft)
10.08.2015 11:30 23,9 C 29,8 C 68 % 1012,4 hPa 0,0 mm 5,4 km/h (1 Bft) W-NW 292 17,6 C 3,9 km/h (1 Bft)
10.08.2015 11:35 24,1 C 30,2 C 67 % 1012,4 hPa 0,0 mm 5,7 km/h (1 Bft) NW 315 17,6 C 12,7 km/h (3 Bft)
10.08.2015 11:40 24,1 C 29,7 C 67 % 1012,4 hPa 0,0 mm 6,7 km/h (2 Bft) W-SW 247 17,6 C 20,7 km/h (4 Bft)
10.08.2015 11:45 24,2 C 29,5 C 66 % 1012,4 hPa 0,0 mm 7,0 km/h (2 Bft) N-NW 337 17,4 C 4,1 km/h (1 Bft)
10.08.2015 11:50 24,3 C 30,3 C 66 % 1012,4 hPa 0,0 mm 4,4 km/h (1 Bft) W-SW 247 17,5 C 3,1 km/h (1 Bft)
10.08.2015 11:55 24,3 C 30,5 C 66 % 1012,2 hPa 0,0 mm 4,4 km/h (1 Bft) N-NW 337 17,5 C 7,5 km/h (2 Bft)
10.08.2015 12:00 24,1 C 29,5 C 64 % 1012,2 hPa 0,0 mm 7,5 km/h (2 Bft) NW 315 16,9 C 7,5 km/h (2 Bft)
10.08.2015 12:05 24,2 C 29,7 C 64 % 1012,2 hPa 0,0 mm 7,3 km/h (2 Bft) N-NW 337 16,9 C 6,2 km/h (2 Bft)
10.08.2015 12:10 24,5 C 30,3 C 64 % 1012,2 hPa 0,0 mm 4,9 km/h (1 Bft) O-NO 67 17,2 C 4,4 km/h (1 Bft)
10.08.2015 12:15 24,4 C 30,5 C 64 % 1012,1 hPa 0,0 mm 3,6 km/h (1 Bft) O-NO 67 17,1 C 0,0 km/h (0 Bft)
10.08.2015 12:20 24,5 C 31,5 C 64 % 1012,1 hPa 0,0 mm 1,8 km/h (1 Bft) S-SW 202 17,2 C 7,8 km/h (2 Bft)
10.08.2015 12:25 24,9 C 31,8 C 65 % 1012,1 hPa 0,0 mm 1,6 km/h (1 Bft) W 270 17,9 C 2,6 km/h (1 Bft)
10.08.2015 12:30 25,6 C 32,5 C 64 % 1012,1 hPa 0,0 mm 3,9 km/h (1 Bft) W 270 18,3 C 8,5 km/h (2 Bft)
10.08.2015 12:35 24,7 C 30,8 C 63 % 1012,1 hPa 0,0 mm 4,4 km/h (1 Bft) SW 225 17,2 C 0,0 km/h (0 Bft)
10.08.2015 12:40 23,7 C 28,4 C 63 % 1012,1 hPa 0,0 mm 3,1 km/h (1 Bft) SO 135 16,2 C 0,0 km/h (0 Bft)
10.08.2015 12:45 23,8 C 27,6 C 65 % 1012,1 hPa 0,0 mm 1,8 km/h (1 Bft) SO 135 16,8 C 3,4 km/h (1 Bft)
10.08.2015 12:50 24,9 C 29,1 C 64 % 1012,1 hPa 0,0 mm 1,8 km/h (1 Bft) W-SW 247 17,6 C 3,1 km/h (1 Bft)
10.08.2015 12:55 25,2 C 29,8 C 62 % 1011,8 hPa 0,0 mm 3,1 km/h (1 Bft) NW 315 17,4 C 8,5 km/h (2 Bft)
10.08.2015 13:00 25,8 C 30,6 C 62 % 1011,8 hPa 0,0 mm 3,9 km/h (1 Bft) N-NO 22 18,0 C 7,0 km/h (2 Bft)
10.08.2015 13:05 25,9 C 31,4 C 59 % 1011,8 hPa 0,0 mm 4,1 km/h (1 Bft) W 270 17,3 C 3,1 km/h (1 Bft)
10.08.2015 13:10 25,9 C 32,3 C 59 % 1011,8 hPa 0,0 mm 3,9 km/h (1 Bft) W 270 17,3 C 10,4 km/h (2 Bft)
10.08.2015 13:15 26,1 C 32,1 C 59 % 1011,7 hPa 0,0 mm 4,7 km/h (1 Bft) SW 225 17,4 C 2,6 km/h (1 Bft)
10.08.2015 13:20 26,2 C 32,3 C 59 % 1011,7 hPa 0,0 mm 4,7 km/h (1 Bft) W 270 17,5 C 9,6 km/h (2 Bft)
10.08.2015 13:25 26,3 C 32,0 C 58 % 1011,7 hPa 0,0 mm 3,9 km/h (1 Bft) W-SW 247 17,4 C 0,0 km/h (0 Bft)
10.08.2015 13:30 26,5 C 31,2 C 58 % 1011,7 hPa 0,0 mm 5,4 km/h (1 Bft) W 270 17,5 C 8,0 km/h (2 Bft)
10.08.2015 13:35 26,6 C 30,5 C 58 % 1011,6 hPa 0,0 mm 4,7 km/h (1 Bft) NW 315 17,6 C 7,3 km/h (2 Bft)
10.08.2015 13:40 26,5 C 29,4 C 58 % 1011,6 hPa 0,0 mm 5,7 km/h (1 Bft) W 270 17,5 C 4,1 km/h (1 Bft)
10.08.2015 13:45 26,7 C 29,3 C 58 % 1011,6 hPa 0,0 mm 4,9 km/h (1 Bft) W 270 17,7 C 3,1 km/h (1 Bft)
10.08.2015 13:50 26,7 C 30,1 C 55 % 1011,6 hPa 0,0 mm 3,4 km/h (1 Bft) S-SO 157 16,9 C 4,7 km/h (1 Bft)
10.08.2015 13:55 26,6 C 30,5 C 56 % 1011,3 hPa 0,0 mm 3,4 km/h (1 Bft) S-SW 202 17,1 C 4,9 km/h (1 Bft)
10.08.2015 14:00 26,6 C 31,3 C 55 % 1011,3 hPa 0,0 mm 3,9 km/h (1 Bft) W-NW 292 16,8 C 8,5 km/h (2 Bft)
10.08.2015 14:05 26,8 C 31,7 C 56 % 1011,3 hPa 0,0 mm 5,4 km/h (1 Bft) O-SO 112 17,3 C 6,0 km/h (2 Bft)
10.08.2015 14:10 27,0 C 31,8 C 55 % 1011,3 hPa 0,0 mm 6,2 km/h (2 Bft) W-NW 292 17,2 C 5,2 km/h (1 Bft)
10.08.2015 14:15 27,0 C 32,0 C 55 % 1011,3 hPa 0,0 mm 5,7 km/h (1 Bft) N-NW 337 17,2 C 8,0 km/h (2 Bft)
10.08.2015 14:20 27,3 C 32,3 C 55 % 1011,3 hPa 0,0 mm 6,0 km/h (2 Bft) S-SO 157 17,4 C 7,8 km/h (2 Bft)
10.08.2015 14:25 27,3 C 32,3 C 56 % 1011,3 hPa 0,0 mm 4,7 km/h (1 Bft) N-NW 337 17,7 C 0,0 km/h (0 Bft)
10.08.2015 14:30 27,7 C 33,2 C 55 % 1011,3 hPa 0,0 mm 4,7 km/h (1 Bft) W 270 17,8 C 10,4 km/h (2 Bft)
10.08.2015 14:35 27,1 C 33,1 C 54 % 1011,1 hPa 0,0 mm 5,7 km/h (1 Bft) NW 315 17,0 C 5,4 km/h (1 Bft)
10.08.2015 14:40 27,1 C 32,2 C 55 % 1011,1 hPa 0,0 mm 5,7 km/h (1 Bft) O-SO 112 17,3 C 0,0 km/h (0 Bft)
10.08.2015 14:45 27,1 C 32,3 C 55 % 1011,1 hPa 0,0 mm 4,4 km/h (1 Bft) N-NW 337 17,3 C 10,6 km/h (2 Bft)
10.08.2015 14:50 27,0 C 31,3 C 55 % 1011,1 hPa 0,0 mm 3,4 km/h (1 Bft) SO 135 17,2 C 4,7 km/h (1 Bft)
10.08.2015 14:55 27,2 C 32,4 C 55 % 1010,9 hPa 0,0 mm 4,1 km/h (1 Bft) NO 45 17,4 C 4,7 km/h (1 Bft)
10.08.2015 15:00 27,2 C 33,3 C 53 % 1010,9 hPa 0,0 mm 3,6 km/h (1 Bft) S-SO 157 16,8 C 0,0 km/h (0 Bft)
10.08.2015 15:05 26,7 C 31,7 C 54 % 1010,9 hPa 0,0 mm 5,4 km/h (1 Bft) S 180 16,6 C 12,7 km/h (3 Bft)
10.08.2015 15:10 26,4 C 29,9 C 54 % 1010,9 hPa 0,0 mm 7,0 km/h (2 Bft) W 270 16,3 C 9,6 km/h (2 Bft)
10.08.2015 15:15 26,2 C 29,1 C 55 % 1010,8 hPa 0,0 mm 5,7 km/h (1 Bft) NO 45 16,4 C 5,4 km/h (1 Bft)
10.08.2015 15:20 25,7 C 28,0 C 57 % 1010,8 hPa 0,0 mm 4,4 km/h (1 Bft) N-NO 22 16,5 C 4,4 km/h (1 Bft)
10.08.2015 15:25 25,5 C 27,6 C 58 % 1010,8 hPa 0,0 mm 4,4 km/h (1 Bft) NO 45 16,6 C 6,0 km/h (2 Bft)
10.08.2015 15:30 25,7 C 27,8 C 58 % 1010,8 hPa 0,0 mm 3,9 km/h (1 Bft) NO 45 16,8 C 6,2 km/h (2 Bft)
10.08.2015 15:35 26,0 C 28,2 C 56 % 1010,8 hPa 0,0 mm 4,4 km/h (1 Bft) N-NO 22 16,5 C 7,3 km/h (2 Bft)
10.08.2015 15:40 27,2 C 31,2 C 55 % 1010,8 hPa 0,0 mm 3,6 km/h (1 Bft) N-NO 22 17,4 C 5,4 km/h (1 Bft)
10.08.2015 15:45 27,4 C 32,4 C 53 % 1010,8 hPa 0,0 mm 4,1 km/h (1 Bft) NO 45 17,0 C 9,6 km/h (2 Bft)
10.08.2015 15:50 27,1 C 32,5 C 53 % 1010,8 hPa 0,0 mm 6,5 km/h (2 Bft) N-NO 22 16,7 C 6,7 km/h (2 Bft)
10.08.2015 15:55 27,0 C 31,9 C 53 % 1010,5 hPa 0,0 mm 5,7 km/h (1 Bft) NO 45 16,6 C 3,6 km/h (1 Bft)
10.08.2015 16:00 27,1 C 31,9 C 53 % 1010,5 hPa 0,0 mm 6,5 km/h (2 Bft) NO 45 16,7 C 11,4 km/h (2 Bft)
10.08.2015 16:05 27,2 C 32,1 C 53 % 1010,5 hPa 0,0 mm 7,5 km/h (2 Bft) NO 45 16,8 C 7,8 km/h (2 Bft)
10.08.2015 16:10 27,3 C 32,1 C 52 % 1010,5 hPa 0,0 mm 7,3 km/h (2 Bft) O 90 16,6 C 6,7 km/h (2 Bft)
10.08.2015 16:15 27,0 C 32,2 C 53 % 1010,4 hPa 0,0 mm 6,0 km/h (2 Bft) N-NO 22 16,6 C 7,5 km/h (2 Bft)
10.08.2015 16:20 26,7 C 31,8 C 53 % 1010,4 hPa 0,0 mm 6,0 km/h (2 Bft) NO 45 16,3 C 13,5 km/h (3 Bft)
10.08.2015 16:25 26,2 C 30,1 C 54 % 1010,4 hPa 0,0 mm 6,5 km/h (2 Bft) O-NO 67 16,1 C 5,2 km/h (1 Bft)
10.08.2015 16:30 25,8 C 28,6 C 58 % 1010,4 hPa 0,0 mm 3,9 km/h (1 Bft) NO 45 16,9 C 3,4 km/h (1 Bft)
10.08.2015 16:35 25,8 C 29,2 C 58 % 1010,4 hPa 0,0 mm 2,3 km/h (1 Bft) NW 315 16,9 C 6,0 km/h (2 Bft)
10.08.2015 16:40 26,1 C 31,2 C 55 % 1010,4 hPa 0,0 mm 2,8 km/h (1 Bft) NW 315 16,3 C 0,0 km/h (0 Bft)
10.08.2015 16:45 26,4 C 32,5 C 55 % 1010,4 hPa 0,0 mm 4,1 km/h (1 Bft) N-NW 337 16,6 C 8,5 km/h (2 Bft)
10.08.2015 16:50 26,4 C 32,5 C 54 % 1010,4 hPa 0,0 mm 4,4 km/h (1 Bft) NO 45 16,3 C 5,4 km/h (1 Bft)
10.08.2015 16:55 26,2 C 30,9 C 55 % 1010,2 hPa 0,0 mm 6,0 km/h (2 Bft) N-NO 22 16,4 C 7,3 km/h (2 Bft)
10.08.2015 17:00 25,8 C 29,0 C 57 % 1010,2 hPa 0,0 mm 4,4 km/h (1 Bft) SO 135 16,6 C 0,0 km/h (0 Bft)
10.08.2015 17:05 25,8 C 28,6 C 57 % 1010,2 hPa 0,0 mm 1,6 km/h (1 Bft) S-SO 157 16,6 C 0,0 km/h (0 Bft)
10.08.2015 17:06 25,9 C 28,6 C 57 % 1010,2 hPa 0,0 mm 0,5 km/h (0 Bft) O-SO 112 16,7 C 0,0 km/h (0 Bft)
10.08.2015 17:08 25,9 C 28,6 C 57 % 1010,2 hPa 0,0 mm 0,5 km/h (0 Bft) O-SO 112 16,7 C 0,0 km/h (0 Bft)
10.08.2015 17:10 25,9 C 28,6 C 57 % 1010,2 hPa 0,0 mm 0,5 km/h (0 Bft) O-SO 112 16,7 C 0,0 km/h (0 Bft)
10.08.2015 17:15 25,9 C 28,7 C 57 % 1010,1 hPa 0,0 mm 0,5 km/h (0 Bft) O-SO 112 16,7 C 0,0 km/h (0 Bft)
10.08.2015 17:20 26,1 C 29,0 C 54 % 1010,1 hPa 0,0 mm 0,3 km/h (0 Bft) O-SO 112 16,0 C 0,0 km/h (0 Bft)
10.08.2015 17:25 26,3 C 29,2 C 56 % 1010,1 hPa 0,0 mm 0,3 km/h (0 Bft) O 90 16,8 C 0,0 km/h (0 Bft)
10.08.2015 17:30 26,4 C 29,4 C 55 % 1010,1 hPa 0,0 mm 2,1 km/h (1 Bft) N-NW 337 16,6 C 4,7 km/h (1 Bft)
10.08.2015 17:35 26,7 C 29,6 C 54 % 1010,1 hPa 0,0 mm 3,4 km/h (1 Bft) N-NO 22 16,6 C 8,8 km/h (2 Bft)
10.08.2015 17:40 26,5 C 29,1 C 53 % 1010,1 hPa 0,0 mm 4,7 km/h (1 Bft) NO 45 16,1 C 5,4 km/h (1 Bft)
10.08.2015 17:45 26,3 C 28,6 C 55 % 1010,1 hPa 0,0 mm 4,1 km/h (1 Bft) NO 45 16,5 C 2,8 km/h (1 Bft)
10.08.2015 17:50 25,8 C 27,9 C 57 % 1010,1 hPa 0,0 mm 2,6 km/h (1 Bft) W-SW 247 16,6 C 7,5 km/h (2 Bft)
10.08.2015 17:55 25,5 C 27,4 C 58 % 1009,9 hPa 0,0 mm 2,3 km/h (1 Bft) O-NO 67 16,6 C 5,4 km/h (1 Bft)
10.08.2015 18:00 25,2 C 27,0 C 58 % 1009,9 hPa 0,0 mm 0,8 km/h (0 Bft) O-NO 67 16,3 C 0,0 km/h (0 Bft)
10.08.2015 18:05 25,1 C 26,9 C 59 % 1009,9 hPa 0,0 mm 0,5 km/h (0 Bft) N-NO 22 16,5 C 0,0 km/h (0 Bft)
10.08.2015 18:10 24,8 C 26,9 C 59 % 1009,9 hPa 0,0 mm 0,3 km/h (0 Bft) O-SO 112 16,2 C 0,0 km/h (0 Bft)
10.08.2015 18:15 24,9 C 27,0 C 59 % 1009,9 hPa 0,0 mm 0,5 km/h (0 Bft) O-NO 67 16,3 C 0,0 km/h (0 Bft)
10.08.2015 18:20 25,2 C 27,3 C 59 % 1009,9 hPa 0,0 mm 0,3 km/h (0 Bft) O-SO 112 16,6 C 0,0 km/h (0 Bft)
10.08.2015 18:25 25,2 C 27,4 C 59 % 1009,9 hPa 0,0 mm 0,3 km/h (0 Bft) O-NO 67 16,6 C 0,0 km/h (0 Bft)
10.08.2015 18:30 25,4 C 27,6 C 60 % 1009,9 hPa 0,0 mm 0,5 km/h (0 Bft) N-NW 337 17,1 C 4,4 km/h (1 Bft)
10.08.2015 18:35 25,6 C 27,7 C 61 % 1009,8 hPa 0,0 mm 1,3 km/h (1 Bft) N-NO 22 17,5 C 4,1 km/h (1 Bft)
10.08.2015 18:40 25,8 C 27,7 C 59 % 1009,8 hPa 0,0 mm 3,6 km/h (1 Bft) N-NO 22 17,2 C 9,6 km/h (2 Bft)
10.08.2015 18:45 25,8 C 26,8 C 59 % 1009,8 hPa 0,0 mm 6,0 km/h (2 Bft) SO 135 17,2 C 4,4 km/h (1 Bft)
10.08.2015 18:50 24,9 C 24,8 C 61 % 1009,8 hPa 0,0 mm 3,9 km/h (1 Bft) O 90 16,8 C 0,0 km/h (0 Bft)
10.08.2015 18:55 24,6 C 24,5 C 63 % 1009,9 hPa 0,0 mm 1,3 km/h (1 Bft) N-NO 22 17,1 C 2,8 km/h (1 Bft)
10.08.2015 19:00 24,3 C 24,4 C 63 % 1009,9 hPa 0,0 mm 1,3 km/h (1 Bft) NW 315 16,8 C 0,0 km/h (0 Bft)
10.08.2015 19:05 24,2 C 24,5 C 64 % 1009,9 hPa 0,0 mm 1,3 km/h (1 Bft) SW 225 16,9 C 0,0 km/h (0 Bft)
10.08.2015 19:10 23,5 C 24,3 C 66 % 1009,9 hPa 0,0 mm 0,0 km/h (0 Bft) S 180 16,8 C 0,0 km/h (0 Bft)
10.08.2015 19:15 23,2 C 24,1 C 68 % 1009,7 hPa 0,0 mm 0,0 km/h (0 Bft) S 180 17,0 C 0,0 km/h (0 Bft)
10.08.2015 19:20 23,0 C 23,8 C 72 % 1009,7 hPa 0,0 mm 1,3 km/h (1 Bft) S 180 17,7 C 4,1 km/h (1 Bft)
10.08.2015 19:25 22,9 C 23,6 C 75 % 1009,7 hPa 0,0 mm 2,8 km/h (1 Bft) S-SO 157 18,2 C 4,4 km/h (1 Bft)
10.08.2015 19:30 22,7 C 23,5 C 74 % 1009,7 hPa 0,0 mm 4,9 km/h (1 Bft) SO 135 17,8 C 5,7 km/h (1 Bft)
10.08.2015 19:35 22,6 C 23,2 C 74 % 1010,0 hPa 0,0 mm 4,9 km/h (1 Bft) S-SO 157 17,7 C 4,4 km/h (1 Bft)
10.08.2015 19:40 22,5 C 23,0 C 75 % 1010,0 hPa 0,0 mm 4,1 km/h (1 Bft) S-SO 157 17,8 C 3,1 km/h (1 Bft)
10.08.2015 19:45 22,4 C 23,0 C 75 % 1010,0 hPa 0,0 mm 2,6 km/h (1 Bft) S-SO 157 17,7 C 0,0 km/h (0 Bft)
10.08.2015 19:50 22,2 C 22,9 C 75 % 1010,0 hPa 0,0 mm 2,3 km/h (1 Bft) SO 135 17,5 C 4,7 km/h (1 Bft)
10.08.2015 19:55 22,1 C 22,9 C 75 % 1009,8 hPa 0,0 mm 3,1 km/h (1 Bft) S-SO 157 17,5 C 4,1 km/h (1 Bft)
10.08.2015 20:00 21,9 C 22,7 C 76 % 1009,8 hPa 0,0 mm 2,8 km/h (1 Bft) S 180 17,5 C 6,0 km/h (2 Bft)
10.08.2015 20:05 21,8 C 22,7 C 76 % 1009,8 hPa 0,0 mm 3,9 km/h (1 Bft) SO 135 17,4 C 6,0 km/h (2 Bft)
10.08.2015 20:10 21,8 C 22,7 C 76 % 1009,8 hPa 0,0 mm 3,9 km/h (1 Bft) S-SO 157 17,4 C 3,4 km/h (1 Bft)
10.08.2015 20:15 21,8 C 22,7 C 76 % 1009,5 hPa 0,0 mm 2,3 km/h (1 Bft) O-NO 67 17,4 C 0,0 km/h (0 Bft)
10.08.2015 20:20 21,6 C 22,3 C 77 % 1009,5 hPa 0,0 mm 0,8 km/h (0 Bft) S 180 17,4 C 0,0 km/h (0 Bft)
10.08.2015 20:25 21,6 C 22,2 C 77 % 1009,5 hPa 0,0 mm 1,0 km/h (0 Bft) SO 135 17,4 C 0,0 km/h (0 Bft)
10.08.2015 20:30 21,3 C 22,0 C 77 % 1009,5 hPa 0,0 mm 1,0 km/h (0 Bft) SO 135 17,1 C 0,0 km/h (0 Bft)
10.08.2015 20:35 21,3 C 21,8 C 77 % 1009,5 hPa 0,0 mm 0,3 km/h (0 Bft) SO 135 17,1 C 0,0 km/h (0 Bft)
10.08.2015 20:40 21,3 C 21,7 C 77 % 1009,5 hPa 0,0 mm 0,5 km/h (0 Bft) SO 135 17,1 C 0,0 km/h (0 Bft)
10.08.2015 20:45 21,2 C 21,6 C 77 % 1009,5 hPa 0,0 mm 1,0 km/h (0 Bft) W-SW 247 17,0 C 3,6 km/h (1 Bft)
10.08.2015 20:50 21,1 C 21,4 C 77 % 1009,5 hPa 0,0 mm 1,6 km/h (1 Bft) S 180 16,9 C 0,0 km/h (0 Bft)
10.08.2015 20:55 21,3 C 21,4 C 77 % 1009,6 hPa 0,0 mm 2,1 km/h (1 Bft) O-SO 112 17,1 C 0,0 km/h (0 Bft)
10.08.2015 21:00 21,5 C 21,5 C 76 % 1009,6 hPa 0,0 mm 2,8 km/h (1 Bft) S-SW 202 17,1 C 13,7 km/h (3 Bft)
10.08.2015 21:05 21,4 C 21,5 C 75 % 1009,6 hPa 0,0 mm 3,9 km/h (1 Bft) W 270 16,8 C 5,4 km/h (1 Bft)
10.08.2015 21:10 21,3 C 21,3 C 74 % 1009,6 hPa 0,0 mm 5,7 km/h (1 Bft) SW 225 16,5 C 7,5 km/h (2 Bft)
10.08.2015 21:15 21,2 C 21,2 C 73 % 1010,0 hPa 0,0 mm 4,9 km/h (1 Bft) S-SO 157 16,2 C 2,8 km/h (1 Bft)
10.08.2015 21:20 21,1 C 21,1 C 73 % 1010,0 hPa 0,0 mm 5,4 km/h (1 Bft) W 270 16,1 C 18,1 km/h (3 Bft)
10.08.2015 21:25 21,0 C 21,0 C 73 % 1010,0 hPa 0,0 mm 6,5 km/h (2 Bft) SO 135 16,0 C 6,2 km/h (2 Bft)
10.08.2015 21:30 20,7 C 20,8 C 73 % 1010,0 hPa 0,0 mm 8,5 km/h (2 Bft) S 180 15,7 C 26,4 km/h (4 Bft)
10.08.2015 21:35 20,4 C 20,6 C 73 % 1010,6 hPa 0,0 mm 6,7 km/h (2 Bft) SW 225 15,4 C 7,5 km/h (2 Bft)
10.08.2015 21:40 20,2 C 20,2 C 73 % 1010,6 hPa 0,0 mm 7,3 km/h (2 Bft) W-NW 292 15,2 C 7,3 km/h (2 Bft)
10.08.2015 21:45 19,9 C 19,9 C 73 % 1010,6 hPa 0,0 mm 7,5 km/h (2 Bft) O-SO 112 14,9 C 0,0 km/h (0 Bft)
10.08.2015 21:50 19,7 C 19,6 C 73 % 1010,6 hPa 0,0 mm 4,1 km/h (1 Bft) W-NW 292 14,7 C 3,1 km/h (1 Bft)
10.08.2015 21:55 19,6 C 19,5 C 74 % 1011,4 hPa 0,0 mm 3,4 km/h (1 Bft) W 270 14,8 C 14,0 km/h (3 Bft)
10.08.2015 22:00 19,5 C 19,4 C 74 % 1011,4 hPa 0,0 mm 4,4 km/h (1 Bft) SW 225 14,7 C 3,9 km/h (1 Bft)
10.08.2015 22:05 19,5 C 19,4 C 74 % 1011,4 hPa 0,0 mm 5,7 km/h (1 Bft) SW 225 14,7 C 10,1 km/h (2 Bft)
10.08.2015 22:10 19,3 C 19,2 C 73 % 1011,4 hPa 0,0 mm 3,1 km/h (1 Bft) W 270 14,3 C 0,0 km/h (0 Bft)
10.08.2015 22:15 19,1 C 19,0 C 74 % 1011,4 hPa 0,0 mm 2,3 km/h (1 Bft) S-SO 157 14,4 C 4,1 km/h (1 Bft)
10.08.2015 22:20 19,1 C 19,0 C 75 % 1011,4 hPa 0,0 mm 2,3 km/h (1 Bft) SW 225 14,6 C 0,0 km/h (0 Bft)
10.08.2015 22:25 19,1 C 19,0 C 75 % 1011,4 hPa 0,0 mm 5,2 km/h (1 Bft) S 180 14,6 C 11,4 km/h (2 Bft)
10.08.2015 22:30 19,1 C 19,0 C 74 % 1011,4 hPa 0,0 mm 7,8 km/h (2 Bft) SW 225 14,4 C 5,4 km/h (1 Bft)
10.08.2015 22:35 19,1 C 19,0 C 74 % 1011,4 hPa 0,0 mm 6,7 km/h (2 Bft) SW 225 14,4 C 3,6 km/h (1 Bft)
10.08.2015 22:40 19,1 C 19,0 C 74 % 1011,4 hPa 0,0 mm 4,7 km/h (1 Bft) W 270 14,4 C 6,5 km/h (2 Bft)
10.08.2015 22:45 19,3 C 19,2 C 73 % 1011,4 hPa 0,0 mm 5,7 km/h (1 Bft) S 180 14,3 C 21,5 km/h (4 Bft)
10.08.2015 22:50 19,4 C 19,3 C 73 % 1011,4 hPa 0,0 mm 8,5 km/h (2 Bft) S 180 14,4 C 8,0 km/h (2 Bft)
10.08.2015 22:55 19,3 C 19,2 C 72 % 1011,3 hPa 0,0 mm 8,3 km/h (2 Bft) SW 225 14,1 C 7,5 km/h (2 Bft)
10.08.2015 23:00 19,1 C 19,1 C 73 % 1011,3 hPa 0,0 mm 4,4 km/h (1 Bft) S-SW 202 14,1 C 6,0 km/h (2 Bft)
10.08.2015 23:05 19,1 C 19,0 C 73 % 1011,3 hPa 0,0 mm 4,1 km/h (1 Bft) S-SW 202 14,1 C 6,0 km/h (2 Bft)
10.08.2015 23:06 18,9 C 18,9 C 74 % 1011,3 hPa 0,0 mm 3,9 km/h (1 Bft) S 180 14,2 C 0,0 km/h (0 Bft)
10.08.2015 23:09 18,9 C 18,9 C 74 % 1011,3 hPa 0,0 mm 3,9 km/h (1 Bft) S 180 14,2 C 0,0 km/h (0 Bft)
10.08.2015 23:10 18,9 C 18,9 C 74 % 1011,3 hPa 0,0 mm 3,9 km/h (1 Bft) S 180 14,2 C 0,0 km/h (0 Bft)
10.08.2015 23:15 18,6 C 18,6 C 74 % 1011,2 hPa 0,0 mm 1,8 km/h (1 Bft) O-NO 67 13,9 C 0,0 km/h (0 Bft)
10.08.2015 23:20 18,4 C 18,3 C 75 % 1011,2 hPa 0,0 mm 0,0 km/h (0 Bft) S 180 13,9 C 0,0 km/h (0 Bft)
10.08.2015 23:25 18,4 C 18,3 C 76 % 1011,2 hPa 0,0 mm 1,3 km/h (1 Bft) S 180 14,1 C 7,5 km/h (2 Bft)
10.08.2015 23:30 18,4 C 18,3 C 76 % 1011,2 hPa 0,0 mm 3,4 km/h (1 Bft) SW 225 14,1 C 5,7 km/h (1 Bft)
10.08.2015 23:35 18,4 C 18,4 C 77 % 1011,4 hPa 0,0 mm 3,6 km/h (1 Bft) O-SO 112 14,3 C 0,0 km/h (0 Bft)
10.08.2015 23:40 18,7 C 18,7 C 76 % 1011,4 hPa 0,0 mm 2,8 km/h (1 Bft) O-SO 112 14,4 C 6,0 km/h (2 Bft)
10.08.2015 23:45 18,9 C 18,8 C 77 % 1011,4 hPa 0,0 mm 1,8 km/h (1 Bft) O-SO 112 14,8 C 2,8 km/h (1 Bft)
10.08.2015 23:50 18,9 C 18,8 C 78 % 1011,4 hPa 0,0 mm 1,3 km/h (1 Bft) SO 135 15,0 C 0,0 km/h (0 Bft)
10.08.2015 23:55 19,0 C 18,9 C 78 % 1011,2 hPa 0,0 mm 2,6 km/h (1 Bft) S 180 15,1 C 12,2 km/h (2 Bft)
_ Min-Zeit 06:45 04:35 16:10 20:50 - 23:20 - - 04:45 23:50
Minimum _ 14,4 C 14,4 C 52 % 1009,5 hPa - 0,0 km/h (0 Bft) - - 12,3 C 0,0 km/h (0 Bft)
_ Max-Zeit 14:30 15:00 06:20 00:10 09:00 10:30 - - 12:30 21:30
Maximum _ 27,7 C 33,3 C 91 % 1012,9 hPa 0,7 mm 9,8 km/h
W (2 Bft)
- - 18,3 C 26,4 km/h
S (4 Bft)
Durchschnitt _ 20,7 C 23,2 C 74 % 1011,3 hPa #2,1 mm 2,8 km/h (1 Bft) W - 15,6 C 3,8 km/h (1 Bft)